CW0795 Weather Reports


time (UTC)temp
C
wind
direction
speed
KPH
gust
KPH
rain 1hr
cm
rain 24hr
cm
rain mn
cm
humidity
%
barometer
mb
20260510094549 8 248 0.0 0.0 0.00 0.00 0.00 96 1012.1
20260510093048 8 248 0.0 0.0 0.00 0.00 0.00 95 1012.1
20260510091548 8 248 0.0 0.0 0.00 0.00 0.00 95 1012.0
20260510090048 8 248 0.0 0.0 0.00 0.00 0.00 95 1012.0
20260510084547 8 248 0.0 0.0 0.00 0.00 0.00 95 1011.8
20260510083047 8 248 0.0 0.0 0.00 0.00 0.00 95 1012.0
20260510081546 9 248 0.0 0.0 0.00 0.00 0.00 95 1011.7
20260510080046 9 248 0.0 0.0 0.00 0.00 0.00 94 1011.5
20260510074545 9 248 0.0 0.0 0.00 0.00 0.00 95 1011.3
20260510073046 10 248 0.0 0.0 0.00 0.00 0.00 94 1011.2
20260510071546 10 248 0.0 0.0 0.00 0.00 0.00 94 1011.2
20260510070045 10 248 0.0 0.0 0.00 0.00 0.00 94 1011.1
20260510064545 10 248 0.0 0.0 0.00 0.00 0.00 94 1011.0
20260510054542 11 248 0.0 0.0 0.00 0.00 0.00 92 1010.7
20260510053041 11 248 0.0 0.0 0.00 0.00 0.00 92 1010.7
20260510051541 11 248 0.0 0.0 0.00 0.00 0.00 91 1010.8
20260510044541 12 248 0.0 0.0 0.00 0.00 0.00 90 1010.7
20260510043039 12 248 0.0 3.2 0.00 0.00 0.00 90 1010.7
20260510034541 13 38 0.0 0.0 0.00 0.00 0.00 88 1010.4
20260510033039 13 38 0.0 0.0 0.00 0.00 0.00 87 1010.3
20260510030037 14 38 0.0 0.0 0.00 0.00 0.00 86 1010.3
20260510024537 15 38 0.0 0.0 0.00 0.00 0.00 84 1010.3
20260510021537 15 38 0.0 0.0 0.00 0.00 0.00 83 1010.0
20260510020035 16 38 0.0 0.0 0.00 0.00 0.00 83 1009.8
20260510014535 16 38 0.0 0.0 0.00 0.00 0.00 83 1009.8
20260510013034 16 38 0.0 0.0 0.00 0.00 0.00 79 1009.6
20260510011534 16 38 0.0 0.0 0.00 0.00 0.00 77 1009.4
20260510003033 18 38 0.0 0.0 0.00 0.00 0.00 73 1008.9
20260510000032 20 38 0.0 0.0 0.00 0.00 0.00 64 1008.6
20260509234531 21 38 0.0 0.0 0.00 0.00 0.00 59 1008.5
20260509233031 22 38 0.0 0.0 0.00 0.00 0.00 56 1008.5
20260509230030 23 57 3.2 3.2 0.00 0.00 0.00 58 1008.5
20260509224530 23 312 0.0 0.0 0.00 0.00 0.00 53 1008.4
20260509221529 23 289 3.2 3.2 0.00 0.00 0.00 46 1008.3
20260509220029 23 252 0.0 3.2 0.00 0.00 0.00 48 1008.4
20260509214528 23 195 0.0 3.2 0.00 0.00 0.00 48 1008.3
20260509213030 23 161 1.6 6.4 0.00 0.00 0.00 46 1008.3
20260509211527 23 247 3.2 8.0 0.00 0.00 0.00 47 1008.1
20260509210057 23 310 4.8 6.4 0.00 0.00 0.00 46 1008.2
20260509203026 25 228 1.6 12.9 0.00 0.00 0.00 47 1008.2
20260509201525 24 293 0.0 6.4 0.00 0.00 0.00 49 1008.2
20260509200055 24 275 1.6 8.0 0.00 0.00 0.00 52 1008.6
20260509194524 23 192 0.0 8.0 0.00 0.00 0.00 53 1008.6
20260509193024 22 243 1.6 9.7 0.00 0.00 0.00 57 1008.8
20260509190056 21 259 1.6 4.8 0.00 0.00 0.00 57 1009.3
20260509184553 21 192 0.0 8.0 0.00 0.00 0.00 57 1009.2
20260509183052 21 161 1.6 8.0 0.00 0.00 0.00 58 1009.3
20260509181552 21 257 1.6 4.8 0.00 0.00 0.00 58 1009.8
20260509180052 21 269 1.6 4.8 0.00 0.00 0.00 58 1010.1
20260509173051 21 167 4.8 6.4 0.00 0.00 0.00 58 1010.5
20260509171550 21 248 3.2 6.4 0.00 0.00 0.00 57 1010.4
20260509170050 21 193 4.8 11.3 0.00 0.00 0.00 58 1010.3
20260509163051 20 190 3.2 9.7 0.00 0.00 0.00 58 1010.6
20260509161550 20 288 3.2 9.7 0.00 0.00 0.00 58 1010.8
20260509160048 20 263 6.4 8.0 0.00 0.00 0.00 59 1010.7
20260509154548 20 307 3.2 8.0 0.00 0.00 0.00 57 1010.7
20260509153050 20 291 4.8 9.7 0.00 0.00 0.00 59 1010.9
20260509151547 20 152 3.2 8.0 0.00 0.00 0.00 57 1011.0
20260509150046 20 51 0.0 11.3 0.00 0.00 0.00 57 1011.1
20260509144546 19 217 4.8 8.0 0.00 0.00 0.00 62 1011.2
20260509143046 18 265 1.6 8.0 0.00 0.00 0.00 60 1011.4
20260509141547 17 145 1.6 4.8 0.00 0.00 0.00 63 1011.7
20260509140046 16 326 1.6 4.8 0.00 0.00 0.00 64 1011.7
20260509134544 16 102 0.0 6.4 0.00 0.00 0.00 64 1011.7
20260509133044 15 103 0.0 4.8 0.00 0.00 0.00 66 1011.7
20260509131543 15 248 1.6 9.7 0.00 0.00 0.00 64 1011.7
20260509130043 15 172 0.0 6.4 0.00 0.00 0.00 63 1011.6
20260509124543 15 124 1.6 9.7 0.00 0.00 0.00 63 1011.7
20260509123042 15 194 3.2 6.4 0.00 0.00 0.00 61 1011.7
20260509121543 15 236 0.0 3.2 0.00 0.00 0.00 67 1011.8
20260509120041 14 13 0.0 6.4 0.00 0.00 0.00 62 1011.9
20260509114542 14 112 1.6 3.2 0.00 0.00 0.00 63 1011.7
20260509113040 14 82 0.0 4.8 0.00 0.00 0.00 66 1011.7
20260509111540 13 278 0.0 6.4 0.00 0.00 0.00 64 1011.4
20260509110040 13 65 0.0 4.8 0.00 0.00 0.00 66 1011.4
20260509104539 13 315 0.0 4.8 0.00 0.00 0.00 64 1011.3
20260509103038 13 173 0.0 1.6 0.00 0.00 0.00 63 1011.3
20260509101538 13 173 0.0 4.8 0.00 0.00 0.00 62 1011.2
20260509100039 13 289 0.0 3.2 0.00 0.00 0.00 61 1011.1